www.pogodaiklimat.ru

Погода и климат >> Архив погоды >> Италия >> Капо Палинуро


ПОГОДА на Капо Палинуро

  • Прогноз погоды на Капо Палинуро
  • Монитор погоды на Капо Палинуро

АРХИВ ПОГОДЫ на Капо Палинуро

Время (UTC), дата Ветер
(напр.,м/с)
 
Видим.   Явления Облачность Т
(С)
Тd
(С)
f
(%)
Тe
(С)
Тes
(С)
Комфортность P
(гПа)
Po
(гПа)
Тmin
(С)
Tmax
(С)
R
(мм)
R24
(мм)
S
(см)
22 13.08 ЮЗ 2 15 км ясно +27.8 +25.6 88 +41 +41 опасность
перегрева
1010.1 989.2
23 13.08 ЮЗ 3 20 км 3/3 1200 м
[Sc]
+27.6 +25.4 88 +40 +40 очень
душно
1010.1 989.2
00 14.08 СВ 1 10 км 3/3 900 м
[Sc]
+27.4 +25.2 88 +40 +40 очень
душно
1010.2 989.2
01 14.08 СВ 3 15 км 3/3 900 м
[Sc]
+27.4 +25.2 88 +40 +40 очень
душно
1010.2 989.2
02 14.08 З 2 20 км ясно +27.0 +25.0 89 +39 +39 очень
душно
1010.1 989.1
03 14.08 СВ 2 20 км ясно +27.0 +25.0 89 +39 +39 очень
душно
1010.0 989.0
04 14.08 ЮЗ 2 20 км ясно +27.0 +24.3 85 +38 +38 очень
душно
1010.3 989.3
05 14.08 ЮЗ 2 20 км ясно +27.0 +24.1 84 +37 +38 очень
душно
1010.3 989.3
06 14.08 С 6 10 км 5/0 2000 м
[As trans Cs]
+26.6 +24.3 87 +37 +38 очень
душно
1010.3 989.3 +26.4
07 14.08 СЗ 5 10 км 6/0
[Ac As Cs]
+27.4 +23.9 81 +38 +40 очень
душно
1010.5 989.6
08 14.08 СЗ 1 10 км 9/3 1200 м
[Sc Ac As]
+27.8 +23.4 77 +38 +41 очень
душно
1010.4 989.5
09 14.08 СВ 3 10 км 6/0 2000 м
[Ac trans]
+27.0 +24.3 85 +38 +46 очень
душно
1011.9 990.9
10 14.08 СЗ 3 10 км 4/0
[Ac trans]
+28.8 +25.8 84 +43 +55 опасность
перегрева
1010.9 990.0
11 14.08 штиль 0 10 км 3/0
[Ac trans]
+29.0 +25.4 81 +43 +62 опасность
перегрева
1010.9 990.0
12 14.08 СЗ 3 10 км 3/0 2000 м
[Ac trans]
+29.0 +25.4 81 +43 +55 опасность
перегрева
1010.9 990.0
13 14.08 штиль 0 10 км 3/0
[Ac trans]
+29.0 +25.4 81 +43 +58 опасность
перегрева
1010.9 990.0
14 14.08 штиль 0 10 км 3/0
[Ac trans]
+28.8 +24.2 76 +40 +51 опасность
солнечного
удара
1010.9 990.0
15 14.08 штиль 0 10 км 4/0 2000 м
[Ac trans]
+28.6 +24.0 76 +40 +46 очень
душно
1010.9 990.0
16 14.08 СЗ 3 10 км 4/0
[Ac trans]
+28.0 +24.2 80 +39 +41 очень
душно
1010.9 990.0
17 14.08 штиль 0 10 км 4/0
[Ac trans]
+27.0 +23.3 80 +36 +37 очень
душно
1011.0 990.0
18 14.08 нст 2 10 км ясно +26.8 +23.5 82 +36 +36 очень
душно
1011.0 990.0 +29.4
19 14.08 СЗ 3 10 км 3/0
[Ac trans]
+26.6 +24.1 86 +37 +37 очень
душно
1011.0 990.0
20 14.08 штиль 0 10 км 3/0
[Ac trans]
+26.6 +24.5 88 +37 +37 очень
душно
1011.0 990.0
21 14.08 штиль 0 20 км 3/0 2000 м
[Ac trans]
+26.0 +24.2 90 +36 +36 очень
душно
1011.1 990.0
22 14.08 штиль 0 20 км 3/0
[Ac trans]
+25.0 +23.4 91 +34 +34 очень
душно
1011.2 990.0
00 15.08 штиль 0 20 км ясно +24.6 +22.9 90 +33 +33 очень
душно
1011.5 990.4
01 15.08 СЗ 3 20 км ясно +24.0 +22.3 90 +31 +31 очень
душно
1011.6 990.4
02 15.08 штиль 0 20 км ясно +24.0 +21.9 88 +31 +31 очень
душно
1011.6 990.4
03 15.08 штиль 0 20 км ясно +24.0 +21.9 88 +31 +31 очень
душно
1011.6 990.4
04 15.08 С 3 20 км ясно +24.2 +22.6 91 +32 +32 очень
душно
1011.5 990.4
05 15.08 СЗ 3 20 км ясно +24.2 +22.1 88 +31 +32 очень
душно
1011.5 990.4
06 15.08 СЗ 3 20 км ясно +24.0 +22.3 90 +31 +34 очень
душно
1011.5 990.3 +23.8
07 15.08 СЗ 3 20 км ясно +25.0 +20.9 78 +31 +37 очень
душно
1011.8 990.7
08 15.08 С 3 20 км ясно +27.0 +22.8 78 +36 +45 очень
душно
1011.6 990.6
09 15.08 ЮЗ 2 20 км 3/3 1200 м
[Cu med, cong]
+28.4 +25.4 84 +42 +52 опасность
перегрева
1011.7 990.8
10 15.08 ЮЗ 3 20 км 4/4 1200 м
[Cu med, cong]
+29.0 +26.2 85 +44 +53 опасность
перегрева
1011.6 990.8
11 15.08 З 2 20 км 3/3 1200 м
[Cu med, cong]
+28.8 +24.6 78 +41 +53 опасность
перегрева
1011.8 990.9
12 15.08 Ю 2 20 км 3/3 1200 м
[Cu med, cong]
+29.2 +24.8 77 +42 +53 опасность
перегрева
1011.8 991.0
13 15.08 Ю 3 20 км 4/4 1200 м
[Cu Sc]
+29.6 +25.4 78 +43 +51 опасность
перегрева
1011.8 991.0
14 15.08 З 3 20 км 4/3 1260 м
[Cu med, cong Ac lent]
+29.8 -30.0 1 +25 +30 комфорт 1011.7 990.9
15 15.08 СЗ 3 20 км 1/1 1200 м
[Cu med, cong]
+29.6 +22.6 66 +39 +43 очень
душно
1011.6 990.8
16 15.08 СЗ 4 20 км ясно +29.0 +23.7 73 +40 +41 очень
душно
1011.6 990.8
17 15.08 З 4 20 км 1/1 1200 м
[Cu hum]
+28.2 +24.4 80 +40 +40 очень
душно
1011.7 990.8
18 15.08 СЗ 6 20 км 1/1 1350 м
[Cu hum]
+27.0 +24.8 88 +39 +39 очень
душно
1011.8 990.8 +30.0
19 15.08 СЗ 4 20 км ясно +26.2 +24.6 91 +37 +37 очень
душно
1011.8 990.8
20 15.08 СЗ 3 20 км ясно +26.0 +24.6 92 +37 +37 очень
душно
1012.1 991.0
21 15.08 С 3 20 км ясно +26.0 +24.6 92 +37 +37 очень
душно
1012.4 991.3
22 15.08 С 3 20 км ясно +25.2 +23.4 90 +34 +34 очень
душно
1012.7 991.6
23 15.08 С 2 20 км ясно +24.8 +23.2 91 +33 +33 очень
душно
1012.9 991.7
00 16.08 С 2 20 км ясно +24.2 +22.8 92 +32 +32 очень
душно
1013.0 991.8
01 16.08 С 2 20 км ясно +24.0 +22.6 92 +31 +31 очень
душно
1013.0 991.8
02 16.08 С 2 20 км ясно +24.4 +23.0 92 +32 +32 очень
душно
1013.0 991.8
03 16.08 С 3 20 км ясно +24.0 +22.3 90 +31 +31 очень
душно
1012.9 991.7
04 16.08 С 2 20 км ясно +24.2 +22.6 91 +32 +32 очень
душно
1012.8 991.6
05 16.08 СВ 2 20 км ясно +24.0 +22.4 91 +31 +32 очень
душно
1012.6 991.4
06 16.08 СВ 2 20 км ясно +24.4 +22.5 89 +32 +34 очень
душно
1012.7 991.5 +23.8
07 16.08 СВ 2 20 км ясно +25.4 +22.7 85 +33 +40 очень
душно
1012.7 991.6
08 16.08 С 2 20 км ясно +26.6 +23.5 83 +36 +47 очень
душно
1012.8 991.8
09 16.08 С 3 20 км 1/1 900 м
[Cu hum]
+27.4 +25.0 87 +39 +50 очень
душно
1013.0 992.0
10 16.08 ЮВ 3 20 км 1/1 900 м
[Cu hum]
+28.0 +25.6 87 +41 +54 опасность
перегрева
1013.1 992.2
11 16.08 ЮВ 4 20 км 1/1 900 м
[Cu hum]
+28.4 +22.6 71 +38 +49 очень
душно
1013.2 992.3
12 16.08 Ю 4 20 км 1/1 900 м
[Cu hum]
+28.4 +23.1 73 +38 +49 очень
душно
1013.3 992.4
14 16.08 ЮВ 4 20 км 1/1 900 м
[Cu hum]
+28.4 +23.1 73 +38 +44 очень
душно
1013.3 992.4
15 16.08 СВ 4 20 км 1/1 900 м
[Cu hum]
+27.4 +22.6 75 +36 +40 очень
душно
1013.4 992.4
16 16.08 ЮЗ 4 20 км 1/1 900 м
[Cu hum]
+27.0 +22.6 77 +36 +37 очень
душно
1013.3 992.3
17 16.08 С 3 20 км 1/1 900 м
[Cu hum]
+26.8 +23.1 80 +36 +36 очень
душно
1013.0 992.0
18 16.08 С 4 20 км 1/1 1200 м
[Cu hum]
+25.4 +22.1 82 +33 +33 очень
душно
1013.1 992.0 +28.8
19 16.08 СЗ 3 20 км 1/1 1200 м
[Cu hum]
+25.2 +23.1 88 +34 +34 очень
душно
1013.2 992.1
20 16.08 В 3 20 км 1/0
[Ac trans]
+25.0 +23.3 90 +33 +33 очень
душно
1013.4 992.3
21 16.08 СЗ 3 20 км 1/1 1200 м
[Cu hum]
+24.8 +23.0 90 +33 +33 очень
душно
1013.7 992.6
22 16.08 ЮЗ 3 20 км ясно +24.4 +22.8 91 +32 +32 очень
душно
1013.9 992.7
23 16.08 З 4 20 км ясно +24.2 +22.6 91 +32 +32 очень
душно
1014.2 992.9
00 17.08 З 4 20 км ясно +24.0 +22.4 91 +31 +31 очень
душно
1014.3 993.0
01 17.08 СВ 3 20 км ясно +24.2 +22.6 91 +32 +32 очень
душно
1014.2 993.0
02 17.08 СВ 3 20 км ясно +24.0 +22.3 90 +31 +31 очень
душно
1014.2 993.0
03 17.08 СЗ 3 20 км ясно +24.0 +21.9 88 +31 +31 очень
душно
1014.3 993.0
04 17.08 С 3 20 км ясно +23.8 +22.1 90 +31 +31 очень
душно
1014.3 993.0
05 17.08 СВ 2 20 км ясно +24.0 +22.1 89 +31 +31 очень
душно
1014.3 993.0
06 17.08 штиль 0 20 км ясно +24.6 +21.7 84 +31 +35 очень
душно
1014.2 993.0 +23.6
07 17.08 ЮЗ 3 20 км 1/1 900 м
[Cu hum]
+25.6 +22.5 83 +34 +38 очень
душно
1014.2 993.0
08 17.08 ЮЗ 3 20 км 1/1 900 м
[Cu hum]
+26.8 +23.1 80 +36 +43 очень
душно
1014.4 993.3
09 17.08 СЗ 3 20 км 4/0 2000 м
[]
+27.0 +22.8 78 +36 +46 очень
душно
1014.7 993.6
10 17.08 штиль 0 20 км 4/0
[Ac trans]
+27.0 +22.8 78 +36 +53 опасность
солнечного
удара
1014.7 993.6
11 17.08 штиль 0 20 км 4/0
[Ac trans]
+28.0 +23.6 77 +38 +56 опасность
солнечного
удара
1015.0 994.0
12 17.08 СЗ 3 20 км 3/0 2000 м
[Ac trans]
+28.4 +24.0 77 +39 +52 опасность
солнечного
удара
1015.0 994.0
13 17.08 СЗ 3 20 км 3/0
[Ac trans]
+28.4 +23.3 74 +38 +49 очень
душно
1015.0 994.0
14 17.08 штиль 0 20 км 4/0
[Ac trans]
+28.4 +22.9 72 +38 +48 очень
душно
1015.0 994.0
15 17.08 СЗ 3 20 км 3/0 2000 м
[Ac trans]
+27.2 +22.4 75 +36 +40 очень
душно
1015.1 994.0
16 17.08 штиль 0 20 км 4/0
[Ac trans]
+27.8 +23.6 78 +38 +40 очень
душно
1015.0 994.0
17 17.08 СЗ 3 20 км 4/0
[Ac trans]
+27.4 +24.1 82 +38 +38 очень
душно
1015.0 994.0
18 17.08 СЗ 3 20 км 3/0 2000 м
[Ac trans]
+26.0 +24.2 90 +36 +36 очень
душно
1015.1 994.0 +28.6
19 17.08 СЗ 3 20 км 3/0
[Ac trans]
+26.0 +24.6 92 +37 +37 очень
душно
1015.1 994.0
20 17.08 СЗ 3 20 км 3/0
[Ac trans]
+25.8 +24.2 91 +36 +36 очень
душно
1014.9 993.8
21 17.08 штиль 0 20 км ясно +25.0 +23.3 90 +33 +33 очень
душно
1015.0 993.8
22 17.08 штиль 0 20 км ясно +24.8 +22.9 89 +33 +33 очень
душно
1015.0 993.8
23 17.08 СЗ 3 20 км ясно +24.4 +22.7 90 +32 +32 очень
душно
1015.0 993.8
00 18.08 С 3 20 км ясно +24.0 +22.3 90 +31 +31 очень
душно
1015.0 993.8
01 18.08 штиль 0 20 км ясно +24.0 +22.3 90 +31 +31 очень
душно
1015.0 993.8
02 18.08 штиль 0 20 км ясно +24.0 +21.9 88 +31 +31 очень
душно
1015.0 993.8
03 18.08 СЗ 3 20 км ясно +24.0 +22.4 91 +31 +31 очень
душно
1015.0 993.8
04 18.08 штиль 0 20 км ясно +24.0 +22.4 91 +31 +31 очень
душно
1015.0 993.8
05 18.08 СЗ 3 20 км ясно +24.2 +22.5 90 +32 +32 очень
душно
1015.0 993.8
06 18.08 СЗ 3 20 км ясно +24.8 +23.0 90 +33 +35 очень
душно
1015.2 994.0 +23.8
07 18.08 СЗ 3 20 км ясно +26.0 +23.1 84 +35 +40 очень
душно
1015.1 994.0
08 18.08 штиль 0 20 км ясно +27.0 +23.3 80 +36 +50 очень
душно
1015.1 994.0
09 18.08 Ю 6 20 км ясно +27.8 +24.2 81 +39 +44 очень
душно
1015.1 994.1
10 18.08 Ю 7 20 км ясно +28.0 +23.6 77 +38 +42 очень
душно
1015.1 994.2
11 18.08 ЮЗ 4 20 км ясно +28.0 +24.2 80 +39 +52 опасность
солнечного
удара
1015.0 994.1
12 18.08 ЮЗ 4 20 км ясно +28.8 +24.6 78 +41 +53 опасность
перегрева
1015.1 994.2
13 18.08 ЮВ 3 20 км ясно +28.8 +25.0 80 +42 +53 опасность
перегрева
1015.0 994.1
14 18.08 ЮЗ 3 20 км ясно +29.0 +25.2 80 +42 +50 опасность
перегрева
1015.0 994.1
15 18.08 ЮВ 5 20 км ясно +27.8 +24.7 83 +39 +43 очень
душно
1014.9 994.0
16 18.08 ЮЗ 3 20 км ясно +27.6 +24.9 85 +39 +42 очень
душно
1015.0 994.0
17 18.08 ЮЗ 4 20 км ясно +27.4 +25.4 89 +40 +40 очень
душно
1014.8 993.8
18 18.08 СЗ 3 20 км ясно +26.4 +24.6 90 +37 +37 очень
душно
1014.5 993.5 +29.0
19 18.08 СЗ 3 20 км ясно +26.0 +24.2 90 +36 +36 очень
душно
1014.6 993.5
20 18.08 СЗ 3 20 км ясно +25.8 +24.0 90 +36 +36 очень
душно
1014.6 993.5
21 18.08 Ю 2 20 км ясно +25.6 +23.8 90 +35 +35 очень
душно
1014.7 993.6
22 18.08 С 1 20 км ясно +25.6 +23.7 89 +35 +35 очень
душно
1014.7 993.6
23 18.08 СЗ 1 20 км ясно +25.6 +23.8 90 +35 +35 очень
душно
1014.7 993.6
00 19.08 СЗ 2 20 км ясно +25.0 +23.3 90 +33 +33 очень
душно
1014.8 993.7
01 19.08 СЗ 1 20 км ясно +25.0 +23.3 90 +33 +33 очень
душно
1014.8 993.6
02 19.08 СЗ 2 20 км ясно +24.4 +22.7 90 +32 +32 очень
душно
1014.8 993.6
03 19.08 С 1 20 км ясно +24.4 +22.7 90 +32 +32 очень
душно
1014.9 993.6
04 19.08 С 2 20 км ясно +24.4 +22.7 90 +32 +32 очень
душно
1014.8 993.6
05 19.08 СЗ 2 20 км ясно +25.0 +23.3 90 +33 +34 очень
душно
1014.8 993.6
06 19.08 ЮЗ 4 20 км ясно +25.6 +23.3 87 +34 +36 очень
душно
1014.8 993.7 +24.0
07 19.08 ЮЗ 3 20 км ясно +26.0 +23.9 88 +36 +40 очень
душно
1014.7 993.6
08 19.08 С 4 20 км ясно +27.0 +24.3 85 +38 +45 очень
душно
1014.8 993.7
09 19.08 штиль 0 20 км 3/3 900 м
[Sc]
+28.0 +24.6 82 +40 +53 опасность
солнечного
удара
1014.8 993.8
10 19.08 ЮЗ 2 20 км 3/3 900 м
[Sc]
+28.0 +24.4 81 +39 +52 опасность
солнечного
удара
1015.0 994.0
11 19.08 З 3 20 км 3/3 900 м
[Sc]
+28.2 +24.6 81 +40 +51 опасность
солнечного
удара
1014.9 994.0
12 19.08 ЮЗ 4 20 км 3/3 900 м
[Cu med, cong]
+28.2 +23.3 75 +38 +47 очень
душно
1016.0 995.0
13 19.08 ЮЗ 3 20 км 3/3 900 м
[Cu med, cong]
+29.0 +24.6 77 +41 +49 опасность
перегрева
1015.9 995.0
14 19.08 ЮЗ 3 20 км 1/1 900 м
[Cu med, cong]
+28.8 +24.6 78 +41 +49 опасность
перегрева
1015.9 995.0
15 19.08 ЮЗ 3 20 км 1/1 900 м
[Cu med, cong]
+28.0 +25.4 86 +41 +45 опасность
перегрева
1016.0 995.0
16 19.08 Ю 3 20 км ясно +28.0 +25.2 85 +41 +43 опасность
перегрева
1016.0 995.0
17 19.08 СЗ 3 20 км ясно +27.6 +23.8 80 +38 +38 очень
душно
1015.9 994.9
18 19.08 СЗ 2 20 км 3/0 2000 м
[Ac trans]
+26.6 +23.5 83 +36 +36 очень
душно
1016.0 994.9 +29.0
19 19.08 штиль 0 20 км ясно +26.2 +23.7 86 +36 +36 очень
душно
1016.0 994.9
20 19.08 штиль 0 20 км ясно +26.0 +24.0 89 +36 +36 очень
душно
1016.2 995.0
21 19.08 штиль 0 20 км ясно +26.0 +24.0 89 +36 +36 очень
душно
1016.2 995.0
22 19.08 СЗ 3 20 км ясно +25.8 +24.0 90 +36 +36 очень
душно
1016.2 995.0
23 19.08 С 3 20 км ясно +25.6 +24.6 94 +36 +36 очень
душно
1016.2 995.0
00 20.08 СЗ 2 20 км ясно +25.0 +23.4 91 +34 +34 очень
душно
1016.2 995.0
01 20.08 СЗ 2 20 км ясно +25.0 +23.3 90 +33 +33 очень
душно
1016.2 995.0
02 20.08 З 2 20 км ясно +25.0 +22.9 88 +33 +33 очень
душно
1016.2 995.0
03 20.08 штиль 0 20 км ясно +25.0 +23.3 90 +33 +33 очень
душно
1016.2 995.0
04 20.08 Ю 2 20 км ясно +25.2 +23.8 92 +34 +34 очень
душно
1016.2 995.0
05 20.08 ЮЗ 2 20 км ясно +25.2 +23.6 91 +34 +35 очень
душно
1016.2 995.0
06 20.08 Ю 3 20 км ясно +25.6 +23.3 87 +34 +36 очень
душно
1016.1 994.9 +24.8
07 20.08 Ю 5 20 км ясно +26.2 +23.5 85 +36 +39 очень
душно
1016.0 994.9
08 20.08 Ю 5 20 км ясно +27.0 +24.3 85 +38 +43 очень
душно
1016.0 994.9
09 20.08 З 4 20 км ясно +27.6 +24.3 82 +39 +47 очень
душно
1016.0 995.0
10 20.08 В 4 20 км 1/1 1200 м
[Cu hum]
+28.4 +25.0 82 +41 +52 опасность
перегрева
1016.0 995.0
11 20.08 ЮВ 4 20 км 1/1 1200 м
[Cu hum]
+29.0 +24.1 75 +40 +52 опасность
солнечного
удара
1016.1 995.2
12 20.08 В 4 20 км 1/1 1200 м
[Cu hum]
+30.0 +24.6 73 +43 +52 опасность
перегрева
1016.2 995.4
13 20.08 З 4 20 км ясно +29.4 +24.1 73 +41 +51 опасность
перегрева
1016.3 995.4
14 20.08 ЮВ 4 20 км ясно +28.4 +24.2 78 +40 +47 очень
душно
1016.4 995.4
15 20.08 ЮВ 3 20 км ясно +27.6 +25.4 88 +40 +45 очень
душно
1016.5 995.4
16 20.08 ЮВ 3 20 км ясно +27.2 +24.9 87 +39 +41 очень
душно
1016.5 995.4
17 20.08 ЮВ 3 20 км ясно +27.0 +24.8 88 +39 +39 очень
душно
1016.4 995.3
18 20.08 СЗ 4 20 км ясно +26.4 +25.0 92 +38 +38 очень
душно
1016.1 995.0 +30.0
19 20.08 СВ 3 20 км ясно +25.6 +23.3 87 +34 +34 очень
душно
1016.1 995.0
20 20.08 ЮЗ 3 20 км ясно +25.4 +22.7 85 +33 +33 очень
душно
1016.1 995.0
21 20.08 С 3 20 км ясно +25.4 +22.5 84 +33 +33 очень
душно
1016.2 995.1

 

Местоположение метеостанции Капо Палинуро (Италия): широта 40.02 долгота 15.28 высота над уровнем моря 185 м.

В архиве по умолчанию представлена погода на Капо Палинуро за последнюю неделю. Архивные данные за месяц целиком и за предыдущие месяцы, начиная с января 2011 года, Вы можете получить, выбрав интересующий диапазон дат из раскрывающегося списка и нажав кнопку "Ввод!".


*Определитесь, кто Вы:
робот инопланетянин человек

Внимание! Время в таблицах - всемирное. Для получения местного времени необходимо прибавить поправку, которая равна 1 ч.

Смотрите также архив погоды в соседних городах и на ближайших метеорологических станциях:

Погода в Латронико (Италия) (63 км)
Погода в Бонифати (Италия) (71 км)
Погода на Капри (Италия) (109 км)
Погода в Тревико (Италия) (115 км)
Погода на Монте Скеро (Италия) (123 км)
Погода в Неаполе (Италия) (124 км)
Погода в Матере (Италия) (138 км)
Погода в Казерте (Италия) (142 км)
Погода в Джинозе (Италия) (143 км)
Погода в Ламеция-Терме (Италия) (150 км)

Пояснения к столбцам:

Ветер - указаны скорость ветра в м/с - средняя за 10 мин, порывы в срок и между сроками (в фигурных скобках) и направление, откуда дует ветер: С - северный, СВ - северо-восточный, В - восточный, ЮВ - юго-восточный, Ю - южный, ЮЗ - юго-западный, З - западный, СЗ - северо-западный.
Видимость - горизонтальная дальность видимости в метрах или километрах. При видимости от 1 до 10 км при отсутствии осадков обычно наблюдается дымка, при ухудшении видимости до 1 км и менее - туман. В сухую погоду видимость может ухудшаться дымом, пылью или мглою.
Явления - указаны атмосферные явления, наблюдавшиеся в срок или в последний час перед сроком; фигурными скобками обозначены явления, наблюдавшиеся между сроками (за 1-3 часа до срока); квадратными скобками обозначены град или гололедные отложения с указанием их диаметра в мм.
Облачность - указаны через наклонную черту общая и нижняя облачность в баллах и высота нижней границы облаков в метрах; квадратными скобками обозначены формы облаков: Ci - перистые, Cs - перисто-слоистые, Cc - перисто-кучевые, Ac - высококучевые, As - высокослоистые, Sc - слоисто-кучевые, Ns - слоисто-дождевые, Cu - кучевые, Cb - кучево-дождевые. Подробнее классификацию облаков см. в Атласе облаков (PDF).
T - Температура воздуха - температура, измеренная на высоте 2 м над землей.
Td - Температура точки росы - температура, при понижении до которой содержащийся в воздухе водяной пар достигнет насыщения.
f - Относительная влажность воздуха - влажноcть воздуха, измеренная на высоте 2 м над землей.
Te - Эффективная температура - температура, которую ощущает одетый по сезону человек в тени. Характеристика душности погоды. При расчете учитывается влияние влажности воздуха и скорости ветра на теплоощущения человека.
Tes - Эффективная температура на солнце - температура, которую ощущает человек, с поправкой на солнечный нагрев. Характеристика знойности погоды. Зависит от высоты солнца над горизонтом, облачности и скорости ветра. Ночью, в пасмурную погоду, а также при ветре 12 м/с и более поправка равна нулю.
P - Атмосферное давление - приведенное к уровню моря атмосферное давление.
Po - Атмосферное давление - измеренное на уровне метеостанции атмосферное давление.
Tmin - Минимальная температура - минимум температуры воздуха на высоте 2 м над землей.
Tmax - Максимальная температура - максимум температуры воздуха на высоте 2 м над землей.
R - Количество осадков - Количество выпавших осадков за период времени, мм. При наведении курсора мыши на число - период времени, за который выпало указанное количество осадков.
R24 - Количество осадков - Количество выпавших осадков за 24 часа, мм.
S - Снежный покров - Высота снежного покрова, см. При наведении курсора мыши на число - состояние снежного покрова и степень покрытия местности в баллах.